Valdez, AK

3:31 PM AKST on February 07, 2016 (GMT -0900)
Valdez

Weather History for PAVD - September, 2013

Change the Weather History Date:

Saturday, September 7, 2013

  Actual Average Record
Temperature  
Mean Temperature 48 °F -  
Max Temperature 51 °F 55 °F 68 °F (1964)
Min Temperature 46 °F 42 °F 35 °F (1964)
Degree Days  
Heating Degree Days 16    
Moisture  
Dew Point 47 °F    
Average Humidity 92    
Maximum Humidity 100    
Minimum Humidity 82    
Precipitation  
Precipitation 0.44 in - - ()
Sea Level Pressure  
Sea Level Pressure 29.67 in    
Wind  
Wind Speed 2 mph (East)    
Max Wind Speed 8 mph    
Max Gust Speed -    
Visibility 6 miles    
Events Fog , Rain    
Averages and records for this station are not official NWS values.
T = Trace of Precipitation, MM = Missing Value Source: NWS Daily Summary

Daily Weather History Graph

Daily Weather History Graph

Search for Another Location

Airport or City:

Trip Planner

Search our weather history database for the weather conditions in past years. The results will help you decide how hot, cold, wet, or windy it might be!

Date:

Astronomy

Sep. 07, 2013 Rise Set
Actual Time 6:52 AM AKDT 8:31 PM AKDT
Civil Twilight 6:07 AM AKDT 9:16 PM AKDT
Nautical Twilight 5:09 AM AKDT 10:13 PM AKDT
Astronomical Twilight 3:58 AM AKDT 11:23 PM AKDT
Moon 10:12 AM AKDT (9/7) 8:33 PM AKDT (9/7)
Length of Visible Light 15h 08m
Length of Day
13h 38m
Waxing Crescent, 6% of the Moon is Illuminated
Sep 7
Waxing Crescent
Sep 12
First Quarter
Sep 19
Full
Sep 26
Last Quarter
Oct 4
New

Hourly Weather History & Observations

Time (AKDT) Temp. Dew Point Humidity Pressure Visibility Wind Dir Wind Speed Gust Speed Precip Events Conditions
12:16 AM 48.2 °F 46.4 °F 93% 29.68 in 10.0 mi ENE 8.1 mph - N/A   Overcast
12:56 AM 48.2 °F 46.4 °F 93% 29.67 in 10.0 mi Calm Calm - N/A   Overcast
1:16 AM 48.2 °F 46.4 °F 93% 29.69 in 10.0 mi Calm Calm - N/A   Overcast
1:36 AM 48.2 °F 48.2 °F 100% 29.68 in 9.0 mi Calm Calm - 0.02 in   Overcast
1:56 AM 48.2 °F 46.4 °F 93% 29.70 in 8.0 mi Calm Calm - 0.03 in   Overcast
2:16 AM 48.2 °F 48.2 °F 100% 29.70 in 10.0 mi Calm Calm - N/A   Overcast
2:36 AM 48.2 °F 46.4 °F 93% 29.71 in 9.0 mi Calm Calm - N/A   Overcast
2:56 AM 48.2 °F 46.4 °F 93% 29.71 in 6.0 mi Calm Calm - 0.01 in   Overcast
3:16 AM 48.2 °F 46.4 °F 93% 29.72 in 5.0 mi Calm Calm - 0.01 in   Overcast
3:36 AM 48.2 °F 48.2 °F 100% 29.73 in 6.0 mi Calm Calm - 0.02 in   Overcast
3:56 AM 48.2 °F 48.2 °F 100% 29.73 in 8.0 mi Calm Calm - 0.03 in   Overcast
4:16 AM 48.2 °F 48.2 °F 100% 29.74 in 8.0 mi North 4.6 mph - 0.01 in   Overcast
4:36 AM 48.2 °F 48.2 °F 100% 29.74 in 8.0 mi SE 4.6 mph - 0.02 in   Overcast
4:56 AM 48.2 °F 46.4 °F 93% 29.75 in 10.0 mi East 3.5 mph - 0.03 in   Overcast
5:16 AM 48.2 °F 46.4 °F 93% 29.76 in 8.0 mi Calm Calm - N/A   Overcast
5:36 AM 48.2 °F 46.4 °F 93% 29.76 in 10.0 mi East 3.5 mph - 0.01 in   Overcast
5:56 AM 48.2 °F 46.4 °F 93% 29.77 in 9.0 mi Calm Calm - 0.01 in   Overcast
6:16 AM 48.2 °F 46.4 °F 93% 29.77 in 5.0 mi ENE 3.5 mph - 0.01 in   Overcast
6:36 AM 46.4 °F 44.6 °F 93% 29.77 in 5.0 mi Calm Calm - 0.02 in   Overcast
6:56 AM 48.2 °F 46.4 °F 93% 29.78 in 4.0 mi Calm Calm - 0.02 in   Overcast
7:16 AM 46.4 °F 44.6 °F 93% 29.78 in 4.0 mi Calm Calm - N/A   Overcast
7:36 AM 46.4 °F 44.6 °F 93% 29.78 in 4.0 mi Calm Calm - N/A   Overcast
7:56 AM 46.4 °F 44.6 °F 93% 29.78 in 2.0 mi Calm Calm - N/A   Overcast
8:00 AM 48.2 °F 44.6 °F 87% 29.78 in 0.5 mi Calm Calm - N/A Rain Light Rain
8:14 AM 48.2 °F 44.6 °F 87% 29.78 in 0.2 mi Calm Calm - N/A Fog , Rain Light Rain
8:16 AM 48.2 °F 44.6 °F 87% 29.78 in 0.2 mi Calm Calm - N/A   Unknown
8:36 AM 48.2 °F 46.4 °F 93% 29.79 in 0.2 mi Calm Calm - 0.01 in   Unknown
8:56 AM 48.2 °F 46.4 °F 93% 29.78 in 0.2 mi Calm Calm - 0.01 in   Unknown
9:16 AM 48.2 °F 46.4 °F 93% 29.79 in 0.2 mi Calm Calm - N/A   Unknown
9:36 AM 48.2 °F 46.4 °F 93% 29.79 in 0.2 mi Calm Calm - 0.01 in   Unknown
9:56 AM 48.2 °F 46.4 °F 93% 29.79 in 0.8 mi ENE 5.8 mph - 0.02 in   Overcast
10:16 AM 48.2 °F 46.4 °F 93% 29.79 in 0.8 mi Calm Calm - 0.01 in   Overcast
10:36 AM 48.2 °F 48.2 °F 100% 29.78 in 0.8 mi East 3.5 mph - 0.01 in   Overcast
10:56 AM 50.0 °F 48.2 °F 94% 29.78 in 1.0 mi East 3.5 mph - 0.02 in   Overcast
11:16 AM 50.0 °F 48.2 °F 94% 29.78 in 1.0 mi Calm Calm - N/A   Overcast
11:36 AM 50.0 °F 48.2 °F 94% 29.78 in 1.0 mi East 4.6 mph - N/A   Overcast
11:56 AM 50.0 °F 48.2 °F 94% 29.78 in 1.0 mi East 3.5 mph - N/A   Overcast
12:16 PM 50.0 °F 48.2 °F 94% 29.77 in 1.0 mi Calm Calm - N/A   Overcast
12:36 PM 50.0 °F 48.2 °F 94% 29.77 in 1.0 mi East 3.5 mph - 0.01 in   Overcast
12:56 PM 50.0 °F 48.2 °F 94% 29.76 in 1.5 mi East 3.5 mph - 0.01 in   Overcast
1:16 PM 50.0 °F 48.2 °F 94% 29.76 in 1.5 mi Calm Calm - N/A   Overcast
1:36 PM 50.0 °F 48.2 °F 94% 29.75 in 1.5 mi Calm Calm - N/A   Overcast
1:56 PM 50.0 °F 48.2 °F 94% 29.75 in 2.0 mi Calm Calm - N/A   Overcast
2:16 PM 50.0 °F 48.2 °F 94% 29.74 in 2.0 mi Calm Calm - N/A   Overcast
2:29 PM 50.0 °F 48.2 °F 94% 29.73 in 5.0 mi Calm Calm - N/A Rain Light Rain
2:36 PM 50.0 °F 48.2 °F 94% 29.73 in 5.0 mi Calm Calm - N/A   Overcast
2:56 PM 51.8 °F 48.2 °F 88% 29.71 in 5.0 mi Calm Calm - N/A   Overcast
3:16 PM 51.8 °F 48.2 °F 88% 29.70 in 5.0 mi Calm Calm - N/A   Overcast
3:36 PM 51.8 °F 48.2 °F 88% 29.68 in 5.0 mi Calm Calm - N/A   Overcast
3:56 PM 51.8 °F 48.2 °F 88% 29.67 in 3.0 mi Calm Calm - N/A   Overcast
4:16 PM 50.0 °F 48.2 °F 94% 29.65 in 3.0 mi Calm Calm - N/A   Overcast
4:36 PM 50.0 °F 48.2 °F 94% 29.64 in 3.0 mi Calm Calm - N/A   Overcast
4:56 PM 50.0 °F 48.2 °F 94% 29.62 in 1.0 mi Calm Calm - N/A   Overcast
5:16 PM 51.8 °F 48.2 °F 88% 29.61 in 1.0 mi Calm Calm - N/A   Overcast
5:18 PM 51.8 °F 48.2 °F 88% 29.61 in 6.0 mi Calm Calm - N/A Fog , Rain Light Rain
5:36 PM 51.8 °F 48.2 °F 88% 29.60 in 6.0 mi Calm Calm - N/A   Overcast
5:56 PM 48.2 °F 46.4 °F 93% 29.59 in 10.0 mi East 4.6 mph - N/A   Overcast
6:16 PM 48.2 °F 46.4 °F 93% 29.58 in 10.0 mi East 5.8 mph - N/A   Overcast
6:36 PM 48.2 °F 44.6 °F 87% 29.56 in 10.0 mi Calm Calm - 0.01 in   Overcast
6:56 PM 48.2 °F 46.4 °F 93% 29.55 in 10.0 mi Calm Calm - 0.01 in   Overcast
7:16 PM 48.2 °F 46.4 °F 93% 29.53 in 10.0 mi ESE 3.5 mph - N/A   Overcast
7:36 PM 46.4 °F 44.6 °F 93% 29.51 in 10.0 mi Calm Calm - 0.01 in   Overcast
7:56 PM 48.2 °F 44.6 °F 87% 29.49 in 10.0 mi Calm Calm - 0.01 in   Overcast
8:13 PM 46.4 °F 44.6 °F 93% 29.49 in 15.0 mi Calm Calm - N/A Rain Light Rain
8:16 PM 46.4 °F 44.6 °F 93% 29.49 in 10.0 mi Calm Calm - N/A   Overcast
8:36 PM 48.2 °F 46.4 °F 93% 29.48 in 10.0 mi Calm Calm - N/A   Overcast
8:56 PM 48.2 °F 46.4 °F 93% 29.47 in 10.0 mi Calm Calm - 0.02 in   Overcast
9:16 PM 48.2 °F 46.4 °F 93% 29.46 in 10.0 mi NE 3.5 mph - 0.04 in   Overcast
9:36 PM 48.2 °F 46.4 °F 93% 29.44 in 10.0 mi ENE 4.6 mph - 0.07 in   Overcast
9:56 PM 48.2 °F 46.4 °F 93% 29.43 in 7.0 mi Calm Calm - 0.12 in   Overcast
10:16 PM 50.0 °F 46.4 °F 87% 29.42 in 10.0 mi Calm Calm - 0.01 in   Overcast
10:36 PM 51.8 °F 48.2 °F 88% 29.41 in 10.0 mi Calm Calm - 0.04 in   Overcast
10:56 PM 51.8 °F 46.4 °F 82% 29.39 in 10.0 mi Calm Calm - 0.06 in   Overcast
11:16 PM 51.8 °F 46.4 °F 82% 29.38 in 10.0 mi WSW 4.6 mph - 0.02 in   Overcast
11:36 PM 51.8 °F 46.4 °F 82% 29.40 in 10.0 mi East 5.8 mph - 0.02 in   Overcast
11:56 PM 51.8 °F 46.4 °F 82% 29.38 in 10.0 mi SSE 5.8 mph - 0.03 in   Overcast